Home > Weather > Westerstede > Past weeks

Flag for Germany Past Weather in Westerstede, Lower Saxony, Germany — Yesterday and Last 2 Weeks

Now
57 °F

Cool.


Feels Like: 55 °F
Forecast: 53 / 65 °F
Wind: 8 mph from Southwest

Location: Wittmundhaven

Current Time: Jul 2, 2016 at 5:56:28 AM

Latest Report: Jul 2, 2016 at 5:20 AM


Visibility: 5 mi

Pressure: 29.74 "Hg

Humidity: 94%

Dew Point: 55 °F

Location of WesterstedeLocation

Past Weather in Westerstede — Graph

°F

Westerstede Temperature Yesterday

Maximum temperature yesterday: 66 °F (at 3:20 PM)
Minimum temperature yesterday: 59 °F (at 12:20 AM)
Average temperature yesterday: 62 °F

High & Low Weather Summary for the Past Weeks

 TemperatureHumidityPressure
High79 °F (Jun 23, 11:20 AM)100% (Jun 20, 5:20 PM)30.21 "Hg (Jun 20, 5:20 PM)
Low50 °F (Jun 28, 6:20 AM)49% (Jun 28, 4:20 PM)29.56 "Hg (Jun 17, 4:20 AM)
Average61 °F83%29.96 "Hg
* Reported Jun 17 4:20 AM — Jul 2 4:20 AM, Westerstede, Weather by CustomWeather, © 2016

Note: Actual official high and low records may vary slightly from our data, if they occured in-between our weather recording intervals... More about our weather records

Advertising

Westerstede Weather History for the Previous 24 Hours

Scroll right to see more
 ConditionsComfort  
Time TempWeatherWind HumidityBarometerVisibility
4:20 AM
Sat, Jul 2
59 °FCool.13 mph88%29.74 "Hg6 mi
3:20 AM61 °FCool.10 mph94%29.74 "Hg3 mi
2:20 AM61 °FCool.10 mph94%29.74 "Hg5 mi
1:20 AM61 °FCool.8 mph94%29.74 "Hg3 mi
12:20 AM61 °FCool.10 mph94%29.74 "Hg4 mi
11:20 PM
Fri, Jul 1
63 °FMild.9 mph88%29.77 "Hg5 mi
10:20 PM63 °FMild.10 mph94%29.77 "Hg5 mi
9:20 PM63 °FMild.10 mph88%29.77 "Hg6 mi
8:20 PM63 °FMild.8 mph94%29.80 "Hg4 mi
7:20 PM64 °FMild.9 mph88%29.80 "Hg2 mi
6:20 PM66 °FPartly sunny.9 mph78%29.80 "HgN/A
5:20 PM66 °FPartly sunny.8 mph78%29.83 "HgN/A
4:20 PM66 °FPartly sunny.9 mph78%29.83 "HgN/A
3:20 PM66 °FBroken clouds.14 mph78%29.83 "HgN/A
2:20 PM63 °FPartly sunny.10 mph88%29.83 "HgN/A
1:20 PM63 °FDrizzle. Fog.16 mph88%29.83 "Hg2 mi
12:20 PM64 °FBroken clouds.14 mph83%29.83 "HgN/A
11:20 AM63 °FPartly sunny.16 mph88%29.80 "Hg5 mi
10:20 AM63 °FDrizzle. Partly sunny.15 mph88%29.80 "Hg5 mi
9:20 AM63 °FDrizzle. Fog.14 mph88%29.80 "Hg3 mi
8:20 AM63 °FPartly sunny.16 mph83%29.80 "HgN/A
7:20 AM61 °FDrizzle. Partly sunny.13 mph88%29.80 "HgN/A
6:20 AM61 °FPartly sunny.12 mph88%29.80 "HgN/A
5:20 AM59 °FPartly cloudy.10 mph94%29.80 "Hg6 mi
Weather by CustomWeather, © 2016

See weather overviewHow to use our weather pages